TimeEDT,TemperatureF,Dew PointF,Humidity,Sea Level PressureIn,VisibilityMPH,Wind Direction,Wind SpeedMPH,Gust SpeedMPH,PrecipitationIn,Events,Conditions,WindDirDegrees,DateUTC
12:53 AM,46.9,44.1,90,30.05,10.0,Calm,Calm,-,N/A,,Partly Cloudy,0,2013-09-21 04:53:00
1:53 AM,46.0,44.1,93,30.05,10.0,Calm,Calm,-,N/A,,Partly Cloudy,0,2013-09-21 05:53:00
2:13 AM,48.2,46.4,93,30.04,10.0,Calm,Calm,-,N/A,,Mostly Cloudy,0,2013-09-21 06:13:00
2:53 AM,48.9,46.9,93,30.03,10.0,Calm,Calm,-,N/A,,Scattered Clouds,0,2013-09-21 06:53:00
3:35 AM,48.2,46.4,93,30.03,10.0,Calm,Calm,-,N/A,,Scattered Clouds,0,2013-09-21 07:35:00
3:44 AM,48.2,46.4,93,30.03,4.0,Calm,Calm,-,N/A,,Mostly Cloudy,0,2013-09-21 07:44:00
3:53 AM,46.9,45.0,93,30.03,10.0,NE,3.5,-,N/A,,Mostly Cloudy,40,2013-09-21 07:53:00
4:35 AM,48.2,46.4,93,30.02,10.0,Calm,Calm,-,N/A,,Overcast,0,2013-09-21 08:35:00
4:53 AM,50.0,48.0,93,30.01,10.0,Calm,Calm,-,N/A,,Overcast,0,2013-09-21 08:53:00
5:11 AM,50.0,48.2,94,30.01,10.0,Calm,Calm,-,N/A,,Scattered Clouds,0,2013-09-21 09:11:00
5:29 AM,48.2,46.4,93,30.01,2.0,Calm,Calm,-,N/A,,Mostly Cloudy,0,2013-09-21 09:29:00
5:44 AM,48.2,46.4,93,30.01,9.0,Calm,Calm,-,N/A,,Mostly Cloudy,0,2013-09-21 09:44:00
5:51 AM,48.2,46.4,93,30.01,7.0,Calm,Calm,-,N/A,,Overcast,0,2013-09-21 09:51:00
5:53 AM,48.0,46.0,93,30.01,6.0,Calm,Calm,-,N/A,,Overcast,0,2013-09-21 09:53:00
6:45 AM,48.2,46.4,93,30.01,1.2,Calm,Calm,-,N/A,,Overcast,0,2013-09-21 10:45:00
6:50 AM,48.2,46.4,93,30.01,4.0,Calm,Calm,-,N/A,,Overcast,0,2013-09-21 10:50:00
6:53 AM,48.9,46.9,93,30.01,9.0,Calm,Calm,-,N/A,,Overcast,0,2013-09-21 10:53:00
7:53 AM,55.9,54.0,93,30.01,10.0,Calm,Calm,-,N/A,,Overcast,0,2013-09-21 11:53:00
8:04 AM,57.2,55.4,94,30.01,10.0,Calm,Calm,-,N/A,,Overcast,0,2013-09-21 12:04:00
8:16 AM,57.2,57.2,100,30.00,10.0,Calm,Calm,-,N/A,,Overcast,0,2013-09-21 12:16:00
8:24 AM,59.0,57.2,94,30.00,10.0,Calm,Calm,-,N/A,,Overcast,0,2013-09-21 12:24:00
8:53 AM,66.0,63.0,90,30.00,10.0,SE,3.5,-,N/A,,Overcast,140,2013-09-21 12:53:00
9:53 AM,69.1,64.0,84,29.98,10.0,SE,5.8,-,N/A,,Overcast,140,2013-09-21 13:53:00
10:53 AM,72.0,63.0,73,29.96,10.0,SE,11.5,-,N/A,,Overcast,140,2013-09-21 14:53:00
11:06 AM,71.6,62.6,73,29.95,10.0,SE,6.9,-,N/A,,Overcast,140,2013-09-21 15:06:00
11:53 AM,71.1,64.9,81,29.94,10.0,SE,10.4,-,N/A,,Overcast,140,2013-09-21 15:53:00
12:53 PM,71.1,66.0,84,29.92,10.0,SSE,6.9,-,N/A,,Overcast,160,2013-09-21 16:53:00
1:53 PM,75.0,64.9,71,29.89,10.0,South,12.7,21.9,N/A,,Scattered Clouds,170,2013-09-21 17:53:00
2:53 PM,75.0,64.9,71,29.87,10.0,South,13.8,21.9,N/A,,Partly Cloudy,170,2013-09-21 18:53:00
3:53 PM,73.9,64.0,71,29.85,10.0,South,13.8,24.2,N/A,,Clear,170,2013-09-21 19:53:00
4:53 PM,73.0,64.9,76,29.83,10.0,South,12.7,23.0,N/A,,Clear,170,2013-09-21 20:53:00
5:53 PM,71.1,64.9,81,29.82,10.0,South,11.5,17.3,N/A,,Clear,170,2013-09-21 21:53:00
6:53 PM,69.1,64.9,87,29.81,10.0,South,9.2,-,N/A,,Partly Cloudy,170,2013-09-21 22:53:00
7:53 PM,69.1,66.0,90,29.81,10.0,South,10.4,17.3,N/A,,Clear,170,2013-09-21 23:53:00
8:53 PM,69.1,66.9,93,29.79,10.0,South,9.2,18.4,N/A,,Mostly Cloudy,170,2013-09-22 00:53:00
9:15 PM,69.8,66.2,88,29.78,10.0,SSE,10.4,19.6,N/A,,Overcast,160,2013-09-22 01:15:00
9:53 PM,70.0,68.0,93,29.78,10.0,South,12.7,21.9,N/A,,Scattered Clouds,170,2013-09-22 01:53:00
10:53 PM,70.0,68.0,93,29.75,10.0,SSE,12.7,20.7,N/A,,Overcast,160,2013-09-22 02:53:00
11:03 PM,69.8,66.2,88,29.75,10.0,South,12.7,20.7,N/A,,Mostly Cloudy,170,2013-09-22 03:03:00
11:53 PM,70.0,66.0,87,29.74,10.0,South,15.0,21.9,N/A,,Mostly Cloudy,170,2013-09-22 03:53:00